EW5925 Weather Reports


time (UTC)temp
F
wind
direction
speed
knots
gust
knots
rain 1hr
in
rain 24hr
in
rain mn
in
humidity
%
barometer
mb
20260904000311 81 218 2.6 6.1 0.00 0.01 0.01 48 1020.4
20260903235537 81 233 1.7 6.1 0.00 0.01 0.01 48 1020.4
20260903235256 80 235 1.7 7.8 0.00 0.01 0.01 49 1020.4
20260903234536 80 246 2.6 7.8 0.00 0.01 0.01 50 1020.5
20260903234033 79 258 1.7 7.0 0.00 0.01 0.01 51 1020.4
20260903233534 79 245 1.7 7.0 0.00 0.01 0.01 52 1020.4
20260903233033 78 247 2.6 7.0 0.00 0.01 0.01 54 1020.5
20260903232532 77 249 2.6 8.7 0.00 0.01 0.01 55 1020.5
20260903232032 77 249 2.6 8.7 0.00 0.01 0.01 56 1020.5
20260903231539 76 216 2.6 7.8 0.00 0.01 0.01 59 1020.6
20260903231026 76 281 1.7 4.3 0.00 0.01 0.01 61 1020.6
20260903230524 75 262 1.7 3.5 0.00 0.01 0.01 63 1020.6
20260903230027 74 222 1.7 4.3 0.00 0.01 0.01 64 1020.6
20260903225512 74 214 2.6 8.7 0.00 0.01 0.01 65 1020.6
20260903225457 73 206 2.6 8.7 0.00 0.01 0.01 66 1020.7
20260903224955 73 231 1.7 7.0 0.00 0.01 0.01 66 1020.6
20260903224009 72 214 2.6 7.8 0.00 0.01 0.01 68 1020.6
20260903223728 71 231 2.6 7.8 0.00 0.01 0.01 69 1020.6
20260903223008 71 235 2.6 7.8 0.00 0.01 0.01 71 1020.6
20260903222728 70 214 2.6 7.8 0.00 0.01 0.01 72 1020.6
20260903222008 69 175 2.6 8.7 0.00 0.01 0.01 75 1020.6
20260903221513 68 213 2.6 8.7 0.00 0.01 0.01 78 1020.6
20260903221006 67 208 1.7 6.1 0.00 0.01 0.01 82 1020.5
20260903220509 66 249 1.7 5.2 0.00 0.01 0.01 84 1020.5
20260903220000 65 251 1.7 5.2 0.00 0.01 0.01 88 1020.4
20260903215500 64 206 0.9 4.3 0.00 0.01 0.01 90 1020.4
20260903214958 63 195 0.9 4.3 0.00 0.01 0.01 91 1020.3
20260903214501 62 199 0.9 3.5 0.00 0.01 0.01 93 1020.3
20260903213931 61 219 1.7 3.5 0.00 0.01 0.01 93 1020.3
20260903213412 61 185 1.7 7.0 0.00 0.01 0.01 93 1020.2
20260903213135 60 246 1.7 7.0 0.00 0.01 0.01 94 1020.1
20260903212619 60 211 0.9 5.2 0.00 0.01 0.01 94 1020.0
20260903212124 59 225 0.9 5.2 0.00 0.01 0.01 94 1019.9
20260903211626 59 234 0.9 3.5 0.00 0.01 0.01 94 1019.8
20260903210856 58 224 0.0 2.6 0.00 0.01 0.01 93 1019.8
20260903210355 58 224 0.0 2.6 0.00 0.01 0.01 93 1019.7
20260903205851 57 189 0.0 1.7 0.00 0.01 0.01 93 1019.6
20260903205351 57 189 0.0 0.9 0.00 0.01 0.01 93 1019.6
20260903204852 56 189 0.0 0.9 0.00 0.01 0.01 92 1019.4
20260903204346 56 189 0.0 0.0 0.00 0.01 0.01 92 1019.4
20260903204103 56 189 0.0 0.0 0.00 0.01 0.01 92 1019.4
20260903203342 56 189 0.0 0.0 0.00 0.01 0.01 91 1019.4
20260903203105 56 189 0.0 0.0 0.00 0.01 0.01 91 1019.5
20260903202333 56 189 0.0 0.0 0.00 0.01 0.01 91 1019.3
20260903201833 56 189 0.0 0.0 0.00 0.01 0.01 91 1019.3
20260903201332 56 189 0.0 0.0 0.00 0.01 0.01 91 1019.2
20260903200831 56 189 0.0 0.0 0.00 0.01 0.01 91 1019.1
20260903200327 56 189 0.0 0.0 0.01 0.01 0.01 91 1019.0
20260903195826 56 189 0.0 0.0 0.01 0.01 0.01 91 1018.9
20260903195325 56 189 0.0 0.0 0.01 0.01 0.01 91 1018.9
20260903194821 56 189 0.0 0.0 0.01 0.01 0.01 91 1018.8
20260903194322 56 189 0.0 0.0 0.01 0.01 0.01 91 1018.8
20260903193820 57 189 0.0 0.0 0.01 0.01 0.01 91 1018.7
20260903193316 57 189 0.0 0.0 0.01 0.01 0.01 91 1018.7
20260903193033 57 189 0.0 0.0 0.01 0.01 0.01 91 1018.6
20260903192308 57 189 0.0 0.0 0.01 0.01 0.01 91 1018.6
20260903191806 57 189 0.0 0.9 0.01 0.01 0.01 90 1018.6
20260903191307 57 189 0.0 0.9 0.01 0.01 0.01 91 1018.7
20260903190749 57 189 0.0 0.0 0.01 0.01 0.01 91 1018.7
20260903190252 57 189 0.0 0.0 0.00 0.00 0.00 91 1018.6
20260903185722 57 189 0.0 0.0 0.00 0.00 0.00 90 1018.5
20260903185210 58 189 0.0 0.0 0.00 0.00 0.00 90 1018.4
20260903184708 58 189 0.0 0.0 0.00 0.00 0.00 90 1018.3
20260903184206 58 189 0.0 0.0 0.00 0.00 0.00 90 1018.2
20260903183925 58 189 0.0 0.0 0.00 0.00 0.00 90 1018.1
20260903183203 58 189 0.0 0.9 0.00 0.00 0.00 90 1018.1
20260903182659 58 189 0.0 1.7 0.00 0.00 0.00 90 1018.1
20260903182159 58 189 0.0 1.7 0.00 0.00 0.00 90 1018.1
20260903181700 58 189 0.0 0.0 0.00 0.00 0.00 90 1018.0
20260903181154 58 189 0.0 0.0 0.00 0.00 0.00 90 1018.0
20260903180910 58 189 0.0 0.0 0.00 0.00 0.00 89 1018.0
20260903180150 59 189 0.0 0.0 0.00 0.00 0.00 89 1018.0
20260903175651 59 189 0.0 0.0 0.00 0.00 0.00 89 1017.9
20260903175128 59 189 0.0 0.0 0.00 0.00 0.00 89 1017.9
20260903174855 59 189 0.0 0.0 0.00 0.00 0.00 89 1017.9
20260903174605 60 189 0.0 0.9 0.00 0.00 0.00 89 1018.0
20260903173621 60 189 0.0 1.7 0.00 0.00 0.00 89 1017.9
20260903173120 60 189 0.0 1.7 0.00 0.00 0.00 89 1017.9
20260903172614 60 189 0.0 1.7 0.00 0.00 0.00 89 1017.9
20260903172113 60 189 0.0 1.7 0.00 0.00 0.00 89 1017.8
20260903171609 60 189 0.0 0.0 0.00 0.00 0.00 89 1017.8
20260903171108 61 189 0.0 0.0 0.00 0.00 0.00 89 1017.7
20260903170832 61 189 0.0 1.7 0.00 0.00 0.00 89 1017.8
20260903170118 61 189 0.0 1.7 0.00 0.00 0.00 89 1017.7
20260903165601 61 189 0.0 2.6 0.00 0.00 0.00 88 1017.7
20260903165100 61 189 0.9 2.6 0.00 0.00 0.00 88 1017.8
20260903164814 62 333 0.0 1.7 0.00 0.00 0.00 88 1017.9
20260903164051 62 333 0.0 0.0 0.00 0.00 0.00 88 1017.7
20260903163549 62 333 0.0 0.0 0.00 0.00 0.00 88 1017.8
20260903163309 62 333 0.0 0.0 0.00 0.00 0.00 88 1017.8
20260903162523 63 333 0.0 0.0 0.00 0.00 0.00 88 1017.9
20260903162024 63 333 0.0 0.0 0.00 0.00 0.00 88 1018.0
20260903161519 63 333 0.0 0.0 0.00 0.00 0.00 88 1017.9
20260903161018 63 333 0.0 0.9 0.00 0.00 0.00 88 1018.0
20260903160512 64 333 0.0 0.9 0.00 0.00 0.00 88 1018.0
20260903160011 64 333 0.0 0.9 0.00 0.00 0.00 88 1017.9
20260903155507 64 333 0.0 0.9 0.00 0.00 0.00 88 1017.9
20260903155006 64 333 0.0 0.0 0.00 0.00 0.00 88 1018.0
20260903154504 65 333 0.0 0.0 0.00 0.00 0.00 88 1018.0
20260903154231 65 333 0.0 0.0 0.00 0.00 0.00 88 1018.0
20260903153501 65 333 0.0 0.0 0.00 0.00 0.00 88 1018.0
20260903153218 65 333 0.0 0.0 0.00 0.00 0.00 88 1018.0
20260903152450 65 333 0.0 0.0 0.00 0.00 0.00 88 1018.1
20260903151948 65 333 0.0 0.0 0.00 0.00 0.00 88 1018.0
20260903151447 65 333 0.0 4.3 0.00 0.00 0.00 89 1018.0
20260903150949 65 333 0.0 4.3 0.00 0.00 0.00 89 1018.1
20260903150435 65 333 0.9 4.3 0.00 0.00 0.00 89 1018.1
20260903145853 65 340 0.9 4.3 0.00 0.00 0.00 89 1018.1
20260903145329 65 339 1.7 4.3 0.00 0.00 0.00 89 1018.1
20260903144829 65 345 1.7 4.3 0.00 0.00 0.00 89 1018.0
20260903144323 65 1 1.7 3.5 0.00 0.00 0.00 88 1018.1
20260903144042 65 0 0.9 2.6 0.00 0.00 0.00 88 1018.1
20260903143318 65 0 0.0 1.7 0.00 0.00 0.00 88 1018.0
20260903142816 66 0 0.0 0.9 0.00 0.00 0.00 88 1018.1
20260903142315 66 0 0.0 0.0 0.00 0.00 0.00 88 1018.1
20260903141813 66 0 0.0 0.0 0.00 0.00 0.00 87 1018.1
20260903141311 66 0 0.0 0.0 0.00 0.00 0.00 87 1018.1
20260903140813 66 0 0.0 0.9 0.00 0.00 0.00 87 1018.2
20260903140311 66 0 0.0 1.7 0.00 0.00 0.00 87 1018.1
20260903135807 66 0 0.0 1.7 0.00 0.00 0.00 87 1018.0
20260903135306 67 0 0.0 1.7 0.00 0.00 0.00 87 1018.0
20260903135242 67 0 0.0 2.6 0.00 0.00 0.00 87 1018.0
20260903134305 67 0 0.0 1.7 0.00 0.00 0.00 87 1017.9
20260903133751 67 0 0.0 1.7 0.00 0.00 0.00 87 1017.9
20260903133515 67 0 0.0 1.7 0.00 0.00 0.00 87 1018.0
20260903132749 67 0 0.0 1.7 0.00 0.00 0.00 87 1018.0
20260903132248 67 0 0.9 2.6 0.00 0.00 0.00 88 1017.9
20260903131745 67 0 1.7 5.2 0.00 0.00 0.00 88 1018.0
20260903131243 67 351 1.7 5.2 0.00 0.00 0.00 87 1018.1
20260903131229 67 8 1.7 3.5 0.00 0.00 0.00 87 1018.1
20260903130240 68 333 1.7 6.1 0.00 0.00 0.00 88 1018.1
20260903125738 68 347 1.7 6.1 0.00 0.00 0.00 88 1018.1
20260903125237 68 9 1.7 7.0 0.00 0.00 0.00 88 1018.1
20260903124735 68 352 2.6 7.0 0.00 0.00 0.00 88 1018.1
20260903124227 68 357 2.6 7.0 0.00 0.00 0.00 88 1018.0
20260903124212 68 355 2.6 7.8 0.00 0.00 0.00 88 1018.1
20260903123225 68 354 2.6 7.8 0.00 0.00 0.00 88 1018.0
20260903123205 68 337 2.6 6.1 0.00 0.00 0.00 88 1018.1
20260903122215 68 349 1.7 6.1 0.00 0.00 0.00 87 1018.1
20260903121716 68 351 1.7 4.3 0.00 0.00 0.00 87 1018.1
20260903121139 68 22 1.7 6.1 0.00 0.00 0.00 87 1018.0
20260903120610 68 338 1.7 6.1 0.00 0.00 0.00 87 1018.0
20260903120056 68 327 1.7 7.8 0.00 0.00 0.00 87 1018.0
20260903115514 68 0 1.7 7.8 0.00 0.00 0.00 87 1018.0
20260903114946 68 47 1.7 4.3 0.00 0.00 0.00 87 1018.0
20260903114638 68 343 0.9 4.3 0.00 0.00 0.00 86 1018.0
20260903114333 68 6 1.7 4.3 0.00 0.00 0.00 86 1017.9
20260903113325 69 10 1.7 5.2 0.00 0.00 0.00 86 1017.9
20260903113033 69 7 1.7 6.1 0.00 0.00 0.00 86 1017.8
20260903112230 69 16 2.6 6.1 0.00 0.00 0.00 86 1017.9
20260903111721 69 358 2.6 8.7 0.00 0.00 0.00 86 1017.8
20260903111442 69 355 2.6 8.7 0.00 0.00 0.00 87 1017.8
20260903110731 69 30 3.5 8.7 0.00 0.00 0.00 87 1017.7
20260903110216 69 358 3.5 8.7 0.00 0.00 0.00 87 1017.8
20260903105715 69 350 3.5 10.4 0.00 0.00 0.00 87 1017.7
20260903105216 69 4 3.5 10.4 0.00 0.00 0.00 87 1017.7
20260903104714 69 6 2.6 7.8 0.00 0.00 0.00 87 1017.7
20260903104208 69 17 2.6 8.7 0.00 0.00 0.00 87 1017.7
20260903103705 69 345 2.6 8.7 0.00 0.00 0.00 87 1017.7
20260903103421 69 358 2.6 7.0 0.00 0.00 0.00 87 1017.7
20260903102700 69 329 1.7 5.2 0.00 0.00 0.00 86 1017.7
20260903102157 69 48 0.9 4.3 0.00 0.00 0.00 86 1017.7
20260903101657 69 333 0.9 4.3 0.00 0.00 0.00 86 1017.7
20260903101157 69 41 0.9 3.5 0.00 0.00 0.00 85 1017.6
20260903100656 69 34 0.9 3.5 0.00 0.00 0.00 85 1017.5
20260903100419 69 13 1.7 6.1 0.00 0.00 0.00 85 1017.5
20260903095657 69 0 1.7 5.2 0.00 0.00 0.00 85 1017.5
20260903095133 69 46 2.6 7.0 0.00 0.00 0.00 85 1017.4
20260903094602 69 346 2.6 6.1 0.00 0.00 0.00 85 1017.4
20260903094034 69 345 2.6 6.1 0.00 0.00 0.00 84 1017.4
20260903093506 69 0 2.6 8.7 0.00 0.00 0.00 84 1017.4
20260903092940 69 350 2.6 8.7 0.00 0.00 0.00 84 1017.3
20260903092420 69 337 1.7 5.2 0.00 0.00 0.00 84 1017.2
20260903091922 70 339 1.7 5.2 0.00 0.00 0.00 84 1017.2
20260903091413 70 5 1.7 5.2 0.00 0.00 0.00 84 1017.1
20260903090912 70 339 1.7 8.7 0.00 0.00 0.00 84 1017.2
20260903090412 70 342 2.6 8.7 0.00 0.00 0.00 84 1017.1
20260903085913 70 2 3.5 8.7 0.00 0.00 0.00 84 1017.1
20260903085634 70 352 4.3 8.7 0.00 0.00 0.00 84 1017.1
20260903084911 70 62 3.5 8.7 0.00 0.00 0.00 84 1017.0
20260903084410 70 16 3.5 7.8 0.00 0.00 0.00 83 1017.0
20260903084400 70 32 3.5 7.8 0.00 0.00 0.00 83 1017.0
20260903083635 70 344 3.5 7.8 0.00 0.00 0.00 83 1017.0
20260903082911 70 341 3.5 7.8 0.00 0.00 0.00 83 1016.9
20260903082411 70 335 2.6 6.1 0.00 0.00 0.00 82 1016.9
20260903081911 70 349 3.5 7.8 0.00 0.00 0.00 82 1016.8
20260903081412 71 355 3.5 7.8 0.00 0.00 0.00 82 1016.7
20260903080857 71 356 2.6 7.0 0.00 0.00 0.00 82 1016.8
20260903080357 71 317 3.5 7.0 0.00 0.00 0.00 82 1016.8
20260903075857 71 324 4.3 9.6 0.00 0.00 0.00 82 1016.8
20260903075357 71 26 4.3 9.6 0.00 0.00 0.00 81 1016.7
20260903075100 71 299 3.5 9.6 0.00 0.00 0.00 80 1016.7
20260903074940 71 324 4.3 9.6 0.00 0.00 0.00 81 1016.8
20260903073859 72 0 2.6 7.8 0.00 0.00 0.00 80 1016.6
20260903073355 72 56 3.5 8.7 0.00 0.00 0.00 79 1016.6
20260903072924 72 35 3.5 9.6 0.00 0.00 0.00 78 1016.6
20260903072854 72 343 4.3 8.7 0.00 0.00 0.00 79 1016.6
20260903072549 73 343 3.5 11.3 0.00 0.00 0.00 77 1016.5
20260903071952 72 14 3.5 9.6 0.00 0.00 0.00 78 1016.5
20260903070856 73 359 3.5 11.3 0.00 0.00 0.00 77 1016.3
20260903070326 73 2 4.3 14.8 0.00 0.00 0.00 76 1016.5
20260903065829 73 350 4.3 14.8 0.00 0.00 0.00 75 1016.3
20260903065325 74 338 4.3 12.2 0.00 0.00 0.00 74 1016.3
20260903065044 74 314 4.3 12.2 0.00 0.00 0.00 73 1016.2
20260903064325 74 337 4.3 12.2 0.00 0.00 0.00 72 1016.2
20260903063824 74 345 5.2 12.2 0.00 0.00 0.00 71 1016.3
20260903063326 75 334 5.2 12.2 0.00 0.00 0.00 70 1016.3
20260903062823 75 324 5.2 11.3 0.00 0.00 0.00 69 1016.3
20260903062322 76 322 5.2 11.3 0.00 0.00 0.00 68 1016.5
20260903061823 76 320 4.3 10.4 0.00 0.00 0.00 67 1016.3
20260903061322 77 0 3.5 7.8 0.00 0.00 0.00 65 1016.5
20260903060824 77 20 3.5 7.8 0.00 0.00 0.00 65 1016.5
20260903060322 77 1 3.5 7.8 0.00 0.00 0.00 65 1016.2
20260903055823 78 6 2.6 7.8 0.00 0.00 0.00 64 1016.2
20260903055547 78 14 2.6 7.8 0.00 0.00 0.00 65 1016.2
20260903055043 78 353 3.5 10.4 0.00 0.00 0.00 63 1016.2
20260903054311 78 339 3.5 10.4 0.00 0.00 0.00 63 1016.2
20260903053810 78 335 2.6 10.4 0.00 0.00 0.00 64 1016.1
20260903053753 78 76 2.6 7.8 0.00 0.00 0.00 64 1016.1
20260903052810 79 20 3.5 7.8 0.00 0.00 0.00 64 1016.2
20260903052310 79 58 3.5 8.7 0.00 0.00 0.00 62 1016.3
20260903051808 80 346 3.5 8.7 0.00 0.00 0.00 61 1016.3
20260903051535 80 338 2.6 8.7 0.00 0.00 0.00 59 1016.3
20260903050818 80 43 2.6 6.1 0.00 0.00 0.00 60 1016.3
20260903050317 80 49 2.6 7.8 0.00 0.00 0.00 59 1016.3
20260903045804 81 330 2.6 7.8 0.00 0.00 0.00 58 1016.5
20260903045306 81 14 2.6 6.1 0.00 0.00 0.00 58 1016.6
20260903044802 81 50 2.6 6.1 0.00 0.00 0.00 57 1016.7
20260903044303 81 50 1.7 6.1 0.00 0.00 0.00 58 1016.7
20260903043801 81 49 2.6 7.0 0.00 0.00 0.00 58 1016.8
20260903043303 81 65 2.6 8.7 0.00 0.00 0.00 57 1016.9
20260903042749 82 342 2.6 8.7 0.00 0.00 0.00 56 1016.9
20260903042249 82 16 2.6 6.1 0.00 0.00 0.00 56 1016.9
20260903041747 81 4 2.6 6.1 0.00 0.00 0.00 57 1016.9
20260903041245 81 52 2.6 8.7 0.00 0.00 0.00 57 1017.0
20260903040744 81 22 3.5 8.7 0.00 0.00 0.00 57 1017.1
20260903040243 81 358 3.5 7.8 0.00 0.00 0.00 57 1017.1
20260903040008 81 37 3.5 7.8 0.00 0.00 0.00 56 1017.1
20260903035504 81 73 2.6 7.0 0.00 0.00 0.00 57 1017.1
20260903034734 81 0 2.6 8.7 0.00 0.00 0.00 56 1017.2
20260903034233 81 316 3.5 8.7 0.00 0.00 0.00 56 1017.3
20260903033730 81 35 2.6 7.0 0.00 0.00 0.00 56 1017.4
20260903033232 81 2 2.6 8.7 0.00 0.00 0.00 57 1017.5
20260903032712 81 22 3.5 10.4 0.00 0.00 0.00 57 1017.6
20260903032213 81 18 3.5 10.4 0.00 0.00 0.00 57 1017.6
20260903031705 81 352 2.6 8.7 0.00 0.00 0.00 57 1017.7
20260903031202 81 48 2.6 8.7 0.00 0.00 0.00 56 1017.7
20260903030701 81 76 2.6 8.7 0.00 0.00 0.00 55 1017.9
20260903030159 81 29 3.5 8.7 0.00 0.00 0.00 54 1017.9
20260903025656 80 24 3.5 7.0 0.00 0.00 0.00 54 1018.0
20260903025156 80 299 2.6 9.6 0.00 0.00 0.00 55 1018.1
20260903024652 80 89 2.6 9.6 0.00 0.00 0.00 56 1018.1
20260903024152 80 64 3.5 9.6 0.00 0.00 0.00 56 1018.2
20260903023644 80 348 3.5 9.6 0.00 0.00 0.00 55 1018.3
20260903023142 80 342 3.5 8.7 0.00 0.00 0.00 54 1018.4
20260903022640 80 28 3.5 8.7 0.00 0.00 0.00 53 1018.7
20260903022411 81 47 3.5 8.7 0.00 0.00 0.00 52 1018.8
20260903021849 81 77 2.6 7.8 0.00 0.00 0.00 53 1018.8
20260903021342 81 341 2.6 7.8 0.00 0.00 0.00 52 1018.8
20260903020606 81 9 2.6 6.1 0.00 0.00 0.00 50 1019.0
20260903020108 81 39 2.6 6.1 0.00 0.00 0.00 50 1019.1
20260903015558 80 1 3.5 6.1 0.00 0.00 0.00 49 1019.1
20260903015057 80 1 2.6 6.1 0.00 0.00 0.00 49 1019.3
20260903014554 80 60 1.7 6.1 0.00 0.00 0.00 50 1019.3
20260903014312 80 49 1.7 6.1 0.00 0.00 0.00 51 1019.5
20260903013551 80 66 2.6 6.1 0.00 0.00 0.00 51 1019.5
20260903013310 80 53 2.6 9.6 0.00 0.00 0.00 51 1019.6
20260903012550 80 8 2.6 9.6 0.00 0.00 0.00 50 1019.7
20260903012047 80 327 2.6 7.0 0.00 0.00 0.00 51 1019.9
20260903011542 80 64 2.6 7.0 0.00 0.00 0.00 52 1020.0
20260903011040 80 16 2.6 7.0 0.00 0.00 0.00 52 1020.0
20260903010540 80 9 1.7 5.2 0.00 0.00 0.00 52 1020.1
20260903010055 80 358 1.7 6.1 0.00 0.00 0.00 53 1020.2
20260903005516 79 7 1.7 6.1 0.00 0.00 0.00 52 1020.3
20260903004949 79 348 2.6 7.0 0.00 0.00 0.00 54 1020.4
20260903004422 79 47 2.6 7.0 0.00 0.00 0.00 54 1020.5
20260903003903 79 277 1.7 6.1 0.00 0.00 0.00 54 1020.6
20260903003629 79 359 1.7 5.2 0.00 0.00 0.00 54 1020.7
20260903002839 79 18 2.6 6.1 0.00 0.00 0.00 55 1020.7
20260903002536 78 325 2.6 6.1 0.00 0.00 0.00 54 1020.8
20260903001741 78 333 1.7 6.1 0.00 0.00 0.00 54 1020.8
20260903001228 77 322 0.9 4.3 0.00 0.00 0.00 54 1020.9
20260903000650 77 318 1.7 5.2 0.00 0.00 0.00 56 1021.1